Regional Weather Roundup
Issued by NWS Midland/Odessa, TX

Skip options and go directly to product.
Home | Oldest Version | Next Version | Current Version | All | Text Only | Save Text | Print | Product List | Glossary On

Skip product version selection by date and time.   
460
ASUS44 KMAF 301501
RWRMAF
MIDLAND AREA WEATHER ROUNDUP
NATIONAL WEATHER SERVICE MIDLAND TX
1000 AM CDT SUN AUG 30 2015

...IN SOUTHWEST TEXAS AND SOUTHEAST NEW MEXICO...

CITY           SKY/WX    TMP DP  RH WIND       PRES   REMARKS
ALPINE         SUNNY     72  53  51 CALM      30.24S
ANDREWS        FAIR      73  59  61 S3        30.16R
ARTESIA        SUNNY     70  61  73 CALM      30.17S
BIG SPRING     MOSUNNY   70  57  62 CALM      30.16R
CARLSBAD       SUNNY     76  54  46 CALM      30.15R
DRYDEN           N/A     77  58  51 VRB5      30.08R
FORT STOCKTON  MOSUNNY   76  54  46 SW5       30.12S
GUAD PASS      SUNNY     70  52  52 NE16      30.26R
HOBBS          SUNNY     72  57  60 CALM      30.19R
MARFA          SUNNY     72  54  53 NE5       30.23R
MIDLAND AIRPK  SUNNY     74  56  53 SE3       30.14S
MIDLAND INTL   SUNNY     76  56  49 SE8       30.13S
ODESSA         SUNNY     74  55  51 SE7       30.14S
PECOS          SUNNY     72  55  56 CALM      30.11F
PRESIDIO       NOT AVBL
SEMINOLE       SUNNY     75  54  47 SW5       30.17R
SNYDER         CLOUDY    70  57  63 CALM      30.12S
WINK           SUNNY     77  56  48 CALM      30.11S
$$
...OTHER STATIONS IN TEXAS...

CITY           SKY/WX    TMP DP  RH WIND       PRES   REMARKS
ABILENE        CLOUDY    76  62  62 SW3       30.09S
AMARILLO       SUNNY     73  62  68 CALM      30.15S
AUSTIN         PTSUNNY   81  67  62 VRB6      30.04S
BROWNSVILLE    PTSUNNY   85  75  72 VRB3      29.98S
CORPUS CHRISTI PTSUNNY   85  72  65 CALM      30.00S
DALLAS FTW     PTSUNNY   84  65  52 SW13      30.00R
DEL RIO        CLOUDY    80  66  62 SE9       30.03R
EL PASO        MOSUNNY   75  53  46 CALM      30.16R
HOUSTON INT    PTSUNNY   81  69  67 CALM      30.03S
LUBBOCK        MOSUNNY   75  58  55 W8        30.15S
SAN ANGELO     CLOUDY    74  61  63 SE3       30.10F
SAN ANTONIO    CLOUDY    79  64  60 VRB3      30.05S
WACO           LGT RAIN  73  69  87 W12       30.01S
WICHITA FALLS  NOT AVBL
$$
...OTHER LOCATIONS IN NEW MEXICO...

CITY           SKY/WX    TMP DP  RH WIND       PRES   REMARKS
ALAMAGORDO     MOSUNNY   73  55  53 CALM      30.19R
ALBUQUERQUE    MOSUNNY   71  51  49 NE5       30.26R
CANNON AFB     NOT AVBL
CLOVIS         SUNNY     68  61  77 SW5       30.21S
HOLLOMAN AFB   NOT AVBL
ROSWELL        SUNNY     70  58  65 CALM      30.17R
RUIDOSO        SUNNY     64  48  55 MISG      30.36S
SANTA FE       SUNNY     66  49  54 N12       30.31R
TRUTH OR CONSE SUNNY     74  53  48 VRB5      30.20S
TUCUMCARI      SUNNY     73  58  59 VRB3      30.16S
$$

USA.gov is the U.S. government's official web portal to all federal, state and local government web resources and services.